ファン・ネス彗星

327P/Van Ness (2015)

English version
Home page
Updated on June 11, 2016

---------------------------------------------------------------------

・ プロフィール

符号 327P/2015 P2
検出日 2015年8月6日、8月10日
検出光度 19.9等、19.5等
検出者 Pan-STARRS 1 telescope (Haleakala), Krisztian Sarneczky and Adam Sodor (Konkoly Observatory)

・ 写真集

・ 軌道要素

Epoch 2015 Dec. 4.0 TT = JDT 2457360.5
T 2015 Dec. 12.42867 TT                                 MPCW
q   1.5603406            (2000.0)            P               Q
n   0.14631065     Peri.  185.09505     +0.99806026     -0.00379317
a   3.5668548      Node   173.96264     -0.00987145     +0.97587181
e   0.5625444      Incl.   36.21456     -0.06146768     -0.21831130
P   6.74
From 89 observations 2002 Aug. 17-2015 Dec. 8, mean residual 0".6.

・ 光度変化

        m1 = 12.5 + 5 logΔ + 20.0 log r

---------------------------------------------------------------------

軌道要素はM.P.E.C. 2015-Y73に掲載されたものです。
光度グラフはComet for Windowsで作成したものです。

---------------------------------------------------------------------

Copyright(C) Seiichi Yoshida (comet@aerith.net). All rights reserved.